User: anonymous   Login
Location: Treviso
(45.6669°N, 12.2430°E)
Time: 19:03:24
(UTC+02:00)
Language:

POLYITAN 1 - Orbit

View from above orbital plane
View from above orbital plane
View from above satellite
View from above satellite

Ground track
Ground track

The orbit data is extracted from the following two-line orbital elements,

1 40042U 14033AJ  19290.75058914 +.00000270 +00000-0 +34954-4 0  9999
2 40042 097.9123 210.6025 0015174 016.6606 343.5106 14.88716598288739
Epoch (UTC): 17 October 2019 18:00:50
Eccentricity: 0.0015174
inclination: 97.9123°
perigee height: 591 km
apogee height: 612 km
right ascension of ascending node: 210.6025°
argument of perigee: 16.6606°
revolutions per day: 14.88716598
mean anomaly at epoch: 343.5106°
orbit number at epoch: 28873

The dashed part of the orbit path shows where the satellite is in the earth's shadow,  

DLR